SCP
0 0 0 0 0 0 0 0 0 0 0 0 0 0 0 0 0 0 0 1 1 1 1 1 1 1 1 1 1 0 0 0 0 0 0 0 0 0 0 0 0 0 0
0 0 0 0 0 0 0 0 0 0 0 0 0 0 0 0 0 0 0 0 0 0 0 0 0 0 0 0 0 0 0 0 0 0 0 0 0 0 0 0 0 0 0
0 0 0 0 0 0 0 0 0 0 0 0 0 0 0 0 0 0 0 0 0 0 0 0 0 0 0 0 0 0 0 0 0 0 0 0 0 0 0 0 0 0 0
0 0 1 1 1 0 0 0 0 0 0 0 0 0 0 0 0 0 0 0 0 0 0 0 0 0 0 0 0 0 0 0 0 0 0 0 0 0 0 0 0 0 0
0 1 1 1 0 0 0 0 0 0 0 0 0 0 0 0 0 0 0 0 0 0 0 0 0 0 0 0 0 0 0 0 0 0 0 0 0 0 0 0 0 0 0
0 0 0 0 0 0 0 0 0 0 0 0 0 0 0 0 0 0 0 0 0 0 0 0 0 0 0 0 0 0 0 0 0 0 0 0 0 0 0 0 0 0 0
0 0 0 0 0 0 0 0 0 0 0 0 0 0 0 0 0 0 0 0 0 0 0 0 0 0 0 0 0 0 0 0 0 0 0 0 0 0 0 0 0 0 0
0 0 0 0 0 0 0 0 0 0 0 0 0 0 0 0 0 0 0 0 0 0 0 0 0 0 0 0 0 0 0 0 0 0 0 0 0 0 0 0 0 0 0
0 0 0 0 0 0 0 0 0 0 0 0 0 0 0 0 0 0 0 0 0 0 0 0 0 0 0 0 0 0 0 0 0 0 0 0 0 0 0 0 0 0 0
0 0 0 0 0 0 0 0 0 0 0 0 0 0 0 0 0 0 0 0 0 0 0 0 0 0 0 0 0 0 0 0 0 0 0 0 0 0 0 0 0 0 0
0 0 0 0 0 0 0 0 0 0 0 0 0 0 0 0 0 0 0 0 0 0 0 0 0 0 0 0 0 0 0 0 0 0 0 0 0 0 0 0 0 0 0
0 0 0 0 0 0 0 0 0 0 0 0 0 0 0 0 0 0 0 0 0 0 0 0 0 0 0 0 0 0 0 0 0 0 0 0 0 0 0 0 0 0 0
0 0 0 0 0 0 0 0 0 0 0 0 0 0 0 0 0 0 0 0 0 0 0 0 0 0 0 0 0 0 0 0 0 0 0 0 0 0 0 0 0 0 0
0 0 0 0 0 0 0 0 0 0 0 0 0 0 0 0 0 0 0 0 0 0 0 0 0 0 0 0 0 0 0 0 0 0 0 0 0 0 0 0 0 0 0
0 0 0 0 0 0 0 0 0 0 0 0 0 0 0 0 0 0 0 0 0 0 0 0 0 0 0 0 0 0 0 0 0 0 0 0 0 0 0 0 0 0 0
0 0 0 0 0 0 0 0 0 0 0 0 0 0 0 0 0 0 0 0 0 0 0 0 0 0 0 0 0 0 0 0 0 0 0 0 0 0 0 0 0 0 0
0 0 0 0 0 0 0 0 0 0 0 0 0 0 0 0 0 0 0 0 0 0 0 0 0 0 0 0 0 0 0 0 0 0 0 0 0 0 0 0 0 0 0
0 0 0 0 0 0 0 0 0 0 0 0 0 0 0 0 0 0 0 0 0 0 0 0 0 0 0 0 0 0 0 0 0 0 0 0 0 0 0 0 0 0 0
0 0 0 0 0 0 0 0 0 0 0 0 0 0 0 0 0 0 0 0 0 0 0 0 0 0 0 0 0 0 0 0 0 0 0 0 0 0 0 0 0 0 0
0 0 0 0 0 0 0 0 0 0 0 0 0 0 0 0 0 0 0 0 0 0 0 0 0 0 0 0 0 0 0 0 0 0 0 0 0 0 0 0 0 0 0
0 0 0 0 0 0 0 0 0 0 0 0 0 0 0 0 0 0 0 0 0 0 0 0 0 0 0 0 0 0 0 0 0 0 0 0 0 0 0 0 0 0 0
0 0 0 0 0 0 0 0 0 0 0 0 0 0 0 0 0 0 0 0 0 0 0 0 0 0 0 0 0 0 0 0 0 0 0 0 0 0 0 0 0 0 0
0 0 0 0 0 0 0 0 0 0 0 0 0 0 0 0 0 0 0 0 0 0 0 0 0 0 0 0 0 0 0 0 0 0 0 0 0 0 0 0 0 0 0
0 0 0 0 0 0 0 0 0 0 0 0 0 0 0 0 0 0 0 0 0 0 0 0 0 0 0 0 0 0 0 0 0 0 0 0 0 0 0 0 0 0 0
0 0 0 0 0 0 0 0 0 0 0 0 0 0 0 0 0 0 0 0 0 0 0 0 0 0 0 0 0 0 0 0 0 0 0 0 0 0 0 0 0 0 0
0 0 0 0 0 0 0 0 0 0 0 0 0 0 0 0 0 0 0 0 0 0 0 0 0 0 0 0 0 0 0 0 0 0 0 0 0 0 0 0 0 0 0
Wind_Speed
5 6 6 6 5 4 5 4 4 3 3 3 3 3 3 4 4 4 5 5 4 3 2 1 2 2 2 4 4 4 4 4 2 2 3 4 6 7 7 7 7 9 10
5 6 6 5 5 5 5 5 5 4 3 2 2 1 1 1 2 3 4 5 6 6 4 3 3 2 2 3 4 3 3 3 3 3 2 3 3 4 7 6 7 8 7
8 8 7 7 6 6 7 6 5 5 4 3 2 1 2 3 3 4 4 5 6 6 6 6 4 3 2 2 3 3 4 4 3 4 3 2 3 3 3 4 6 6 6
8 8 8 8 7 7 6 6 6 5 4 4 3 2 1 1 3 3 3 6 6 6 6 6 5 4 3 2 2 1 1 2 3 2 3 4 3 2 4 4 2 5 6
9 8 8 7 6 6 6 5 5 4 3 3 3 2 2 2 3 3 4 5 5 5 6 6 6 4 2 3 2 1 1 1 2 2 2 3 3 3 3 4 4 2 3
7 5 4 4 3 3 4 4 4 3 3 3 2 3 3 3 3 4 3 4 4 4 6 6 5 5 3 3 3 2 2 1 2 2 2 2 2 2 3 4 4 3 3
5 4 4 4 3 4 4 4 4 3 3 2 2 3 3 3 3 3 3 3 3 3 5 5 4 4 5 5 4 3 4 3 3 3 2 2 3 2 2 2 3 3 3
4 5 5 5 4 4 4 4 3 3 2 2 3 2 2 2 2 3 3 3 3 3 4 4 4 5 5 6 5 4 4 4 4 4 4 3 3 2 2 2 2 2 3
6 5 5 5 4 4 4 4 4 3 3 3 2 2 2 2 3 3 3 3 3 4 4 4 5 5 5 5 5 3 5 4 4 5 5 4 4 3 2 2 3 2 2
5 5 5 5 4 4 4 4 4 3 3 2 2 2 3 3 3 3 4 4 4 4 5 5 5 5 5 5 4 4 5 5 5 4 5 5 4 3 3 3 3 3 3
6 5 5 4 4 4 4 3 3 3 3 3 3 3 4 4 4 4 5 5 5 5 5 6 6 6 6 6 5 5 6 5 5 5 5 6 6 4 4 3 3 3 3
6 6 5 4 4 4 3 4 4 4 4 4 4 4 4 5 5 5 6 6 6 6 6 6 6 7 7 6 6 7 7 6 7 6 6 7 6 6 5 4 4 4 4
6 4 4 4 4 4 4 4 4 5 4 4 4 4 5 5 6 7 7 6 7 7 7 6 7 7 7 7 7 7 7 7 7 7 7 7 6 7 5 5 5 4 4
6 5 4 4 4 5 5 5 5 5 4 4 4 5 6 6 7 7 6 7 7 7 7 7 7 8 8 8 8 8 8 8 8 8 7 7 7 7 7 6 6 5 4
5 5 4 4 4 5 5 5 5 5 4 4 5 6 6 6 6 6 7 7 7 8 7 7 7 8 7 8 9 8 9 8 8 8 7 8 10 12 9 6 6 6 5
4 4 3 3 5 5 5 5 5 5 4 4 5 6 6 5 6 6 7 7 7 7 7 8 8 9 9 11 14 11 8 8 8 8 8 9 11 13 14 14 12 11 8
5 4 4 5 5 5 5 5 5 4 4 5 5 5 5 6 6 7 7 7 7 7 8 8 8 9 11 16 17 18 11 9 9 10 9 10 11 10 7 10 14 14 15
5 4 4 5 5 4 4 4 4 4 4 5 5 5 5 6 7 7 8 8 7 8 8 9 9 10 12 16 16 18 13 9 10 11 11 10 10 10 8 6 7 8 9
6 5 5 4 4 4 4 3 3 4 4 5 5 5 5 7 7 8 9 8 8 9 9 9 10 10 12 15 16 15 8 8 10 11 11 11 11 13 13 8 7 7 6
4 4 3 3 3 4 3 2 4 4 5 5 6 6 6 7 8 9 9 8 8 9 9 10 10 10 10 13 15 13 6 8 8 8 9 14 14 13 13 10 8 8 7
5 4 2 2 3 3 1 2 4 5 5 5 6 6 6 7 8 7 7 8 9 9 9 10 10 9 9 11 13 12 6 7 7 6 6 7 13 14 13 11 8 10 8
4 3 2 2 3 2 0 2 4 5 5 5 6 7 7 8 8 8 9 8 8 9 9 8 8 6 6 8 9 11 10 8 7 6 6 6 11 12 12 10 10 11 9
5 3 3 2 1 1 1 2 5 5 5 5 6 7 8 7 7 8 9 9 7 7 7 6 6 6 5 5 9 9 9 9 6 6 8 8 9 9 8 10 11 9 6
5 4 2 1 2 2 2 3 4 4 4 5 7 7 8 9 8 7 6 7 7 7 7 6 6 5 4 4 4 4 4 5 4 3 5 6 6 5 5 5 5 5 6
5 4 4 3 4 4 3 3 3 3 4 6 6 7 7 8 8 8 7 8 8 9 8 6 5 4 5 5 6 5 4 3 2 1 1 1 2 2 2 3 3 3 4
5 5 4 4 4 4 3 4 3 2 4 5 6 6 6 7 7 8 10 11 11 13 12 11 7 5 7 7 7 7 7 6 2 1 1 2 2 3 3 3 3 3 4
Wind_Direction
176 174 173 165 154 144 136 135 119 102 84 63 50 31 355 342 344 348 343 338 327 326 321 292 295 282 258 256 248 235 234 235 209 230 273 265 243 234 233 226 220 222 221
188 189 189 184 180 175 168 159 150 136 123 121 131 158 246 304 319 335 347 347 338 324 318 293 276 268 272 286 271 236 231 236 198 191 226 289 296 255 233 221 218 218 212
197 197 192 193 189 184 181 172 165 152 145 138 110 46 16 354 347 338 334 330 326 319 314 300 278 258 236 262 277 254 229 241 234 201 188 209 253 296 288 236 222 211 206
204 198 193 193 194 193 180 168 164 159 160 147 139 154 171 254 267 279 301 316 324 325 323 317 298 263 234 238 264 281 236 231 250 244 224 217 208 235 302 314 263 219 211
207 201 193 189 186 176 165 163 161 169 180 173 169 171 206 237 269 298 320 323 324 332 338 333 329 305 268 247 248 276 296 236 246 242 241 246 237 219 219 284 309 297 239
208 194 175 153 149 149 146 154 162 189 207 200 196 193 222 253 288 311 320 319 318 324 333 338 341 335 318 287 273 266 271 265 275 271 240 221 230 233 215 238 263 272 266
181 159 144 137 143 148 155 162 168 199 225 219 228 231 236 247 262 271 273 292 306 311 315 332 334 334 323 308 294 284 275 266 268 270 263 242 231 221 215 229 256 265 275
138 139 146 145 148 149 152 159 172 203 231 236 257 263 260 236 242 250 257 272 272 274 287 307 316 318 320 321 313 294 279 269 262 265 265 265 259 230 210 212 225 275 288
141 143 146 149 154 154 166 175 181 208 241 253 265 269 252 254 265 274 275 282 283 287 304 308 311 310 312 313 314 298 287 281 264 261 261 260 263 250 228 214 194 203 250
151 151 158 167 173 177 186 188 188 203 224 230 236 238 249 260 265 274 283 283 284 288 301 303 303 302 302 301 303 297 291 287 275 264 261 259 258 257 241 222 215 201 210
167 173 180 183 184 190 194 198 204 213 228 233 241 251 254 257 261 262 265 263 264 270 275 278 283 287 289 289 290 289 291 287 285 281 268 259 256 253 248 230 218 217 203
180 184 188 194 205 213 218 219 224 230 235 237 241 247 253 257 259 259 259 256 256 257 256 259 264 268 274 274 275 278 285 278 278 275 270 264 262 252 244 233 225 221 216
186 191 204 219 231 234 236 235 237 239 239 241 250 262 267 265 261 260 259 257 255 256 255 254 255 258 260 261 261 262 267 265 263 263 261 258 255 253 245 235 230 225 227
189 197 224 243 252 250 245 243 249 243 242 249 258 266 268 265 265 267 268 266 262 259 258 255 251 252 253 254 255 256 259 261 262 259 257 253 244 242 241 236 229 222 222
184 198 215 238 255 261 258 255 253 250 249 257 264 265 269 271 272 275 275 274 270 270 261 259 258 254 253 254 250 247 254 255 259 260 256 253 255 251 242 234 221 213 214
191 196 211 244 264 266 262 257 250 251 250 260 266 271 279 282 281 281 282 281 277 273 268 263 261 260 264 264 258 252 246 243 246 253 255 259 266 263 255 245 230 211 205
199 212 238 252 262 265 255 249 248 252 260 266 271 278 283 286 286 290 293 286 282 277 273 268 264 263 263 261 259 258 251 239 240 241 245 258 260 257 245 244 239 226 216
206 231 247 258 264 260 258 255 255 263 272 277 281 284 287 290 291 290 287 285 280 279 276 273 268 266 268 264 257 257 255 244 240 237 234 236 244 247 238 236 235 224 215
206 221 232 240 257 270 264 261 274 280 285 286 287 287 291 294 296 296 293 290 288 286 279 274 271 268 271 268 263 258 250 245 244 240 235 231 233 235 229 222 224 221 220
204 216 231 247 276 278 267 271 283 290 288 286 287 287 290 293 295 294 293 291 287 285 284 281 275 269 270 271 268 261 246 245 246 241 238 234 229 227 220 212 208 209 204
198 194 206 256 268 271 272 290 295 290 285 288 291 293 294 294 294 293 293 294 292 290 286 284 283 277 273 277 274 269 246 240 242 238 233 231 224 221 217 208 203 205 188
188 188 210 265 278 279 293 303 292 283 289 297 301 300 298 300 308 301 299 296 292 292 290 289 290 286 282 282 284 282 265 243 234 237 233 227 222 220 215 207 205 198 181
192 198 198 255 292 266 180 282 280 289 302 310 307 303 303 301 298 297 299 300 295 292 290 288 288 290 291 295 302 302 292 268 236 234 231 225 218 211 207 203 190 177 174
193 186 179 204 239 242 250 258 278 297 310 309 305 304 307 307 305 300 293 293 293 294 289 285 284 285 289 297 312 312 307 293 253 240 235 221 200 181 170 169 173 173 180
187 176 178 199 224 237 255 267 279 299 307 304 302 304 304 303 306 303 294 289 280 273 269 272 265 270 282 279 290 300 302 296 268 225 182 156 148 146 147 143 151 165 170
175 174 181 196 220 234 252 267 264 277 301 305 306 305 307 306 305 307 309 298 285 283 266 249 241 249 253 279 291 299 303 305 281 212 186 174 167 168 174 171 168 177 183